| time (UTC) | temp C | wind direction | speed KPH | gust KPH | rain 1hr cm | rain 24hr cm | rain mn cm | humidity % | barometer mb |
| 20260509180839 | 7 | 274 | 0.0 | 0.0 | 0.00 | 0.05 | 0.05 | 86 | 1013.3 |
| 20260509180335 | 8 | 274 | 0.0 | 0.0 | 0.13 | 0.05 | 0.05 | 86 | 1013.2 |
| 20260509175832 | 8 | 274 | 0.0 | 0.0 | 0.13 | 0.05 | 0.05 | 86 | 1013.3 |
| 20260509175328 | 8 | 274 | 0.0 | 0.0 | 0.00 | 0.03 | 0.03 | 86 | 1013.1 |
| 20260509174824 | 8 | 274 | 0.0 | 0.0 | 0.00 | 0.03 | 0.03 | 85 | 1013.2 |
| 20260509174320 | 8 | 274 | 0.0 | 0.0 | 0.00 | 0.03 | 0.03 | 84 | 1013.3 |
| 20260509173816 | 8 | 274 | 0.0 | 0.0 | 0.18 | 0.03 | 0.03 | 84 | 1013.2 |
| 20260509173312 | 8 | 274 | 0.0 | 0.0 | 0.18 | 0.03 | 0.03 | 83 | 1013.1 |
| 20260509172808 | 8 | 274 | 0.0 | 0.0 | 0.00 | 0.00 | 0.00 | 82 | 1013.2 |
| 20260509172306 | 8 | 274 | 0.0 | 0.0 | 0.00 | 0.00 | 0.00 | 81 | 1013.1 |
| 20260509171800 | 8 | 274 | 0.0 | 0.0 | 0.00 | 0.00 | 0.00 | 78 | 1013.4 |
| 20260509171251 | 8 | 274 | 0.0 | 0.0 | 0.00 | 0.00 | 0.00 | 76 | 1013.1 |
| 20260509170747 | 9 | 274 | 0.0 | 0.0 | 0.00 | 0.00 | 0.00 | 73 | 1013.3 |
| 20260509170243 | 10 | 274 | 0.0 | 0.0 | 0.00 | 0.00 | 0.00 | 71 | 1013.3 |
| 20260509165742 | 10 | 274 | 0.0 | 0.0 | 0.00 | 0.00 | 0.00 | 65 | 1013.4 |
| 20260509165238 | 10 | 274 | 0.0 | 1.6 | 0.00 | 0.00 | 0.00 | 64 | 1013.0 |
| 20260509164734 | 10 | 274 | 1.6 | 1.6 | 0.00 | 0.00 | 0.00 | 58 | 1013.1 |
| 20260509164229 | 10 | 274 | 0.0 | 1.6 | 0.00 | 0.00 | 0.00 | 58 | 1013.1 |
| 20260509163727 | 10 | 274 | 0.0 | 1.6 | 0.00 | 0.00 | 0.00 | 56 | 1013.1 |
| 20260509163223 | 11 | 274 | 1.6 | 3.2 | 0.00 | 0.00 | 0.00 | 53 | 1013.0 |
| 20260509162721 | 11 | 274 | 0.0 | 0.0 | 0.00 | 0.00 | 0.00 | 49 | 1012.9 |
| 20260509162216 | 11 | 274 | 0.0 | 4.8 | 0.00 | 0.00 | 0.00 | 47 | 1013.0 |
| 20260509161712 | 12 | 274 | 0.0 | 3.2 | 0.00 | 0.00 | 0.00 | 44 | 1013.0 |
| 20260509161209 | 11 | 274 | 0.0 | 0.0 | 0.00 | 0.00 | 0.00 | 41 | 1012.9 |
| 20260509160704 | 12 | 274 | 0.0 | 1.6 | 0.00 | 0.00 | 0.00 | 40 | 1012.7 |
| 20260509160200 | 12 | 274 | 0.0 | 0.0 | 0.00 | 0.00 | 0.00 | 40 | 1012.6 |
| 20260509155656 | 12 | 274 | 0.0 | 3.2 | 0.00 | 0.00 | 0.00 | 40 | 1012.9 |
| 20260509155152 | 12 | 274 | 0.0 | 1.6 | 0.00 | 0.00 | 0.00 | 37 | 1012.4 |
| 20260509154648 | 12 | 274 | 0.0 | 0.0 | 0.00 | 0.00 | 0.00 | 38 | 1012.4 |
| 20260509154146 | 12 | 274 | 0.0 | 0.0 | 0.00 | 0.00 | 0.00 | 44 | 1012.6 |
| 20260509153642 | 12 | 274 | 0.0 | 1.6 | 0.00 | 0.00 | 0.00 | 46 | 1012.7 |
| 20260509153139 | 12 | 274 | 0.0 | 0.0 | 0.00 | 0.00 | 0.00 | 48 | 1012.6 |
| 20260509152634 | 11 | 274 | 0.0 | 0.0 | 0.00 | 0.00 | 0.00 | 52 | 1012.5 |
| 20260509152132 | 11 | 274 | 0.0 | 0.0 | 0.00 | 0.00 | 0.00 | 51 | 1012.5 |
| 20260509151628 | 11 | 274 | 0.0 | 0.0 | 0.00 | 0.00 | 0.00 | 52 | 1012.5 |
| 20260509151126 | 10 | 274 | 0.0 | 1.6 | 0.00 | 0.00 | 0.00 | 53 | 1012.5 |
| 20260509150624 | 10 | 274 | 0.0 | 1.6 | 0.00 | 0.00 | 0.00 | 55 | 1012.6 |
| 20260509150122 | 11 | 274 | 0.0 | 0.0 | 0.00 | 0.00 | 0.00 | 55 | 1012.6 |
| 20260509145617 | 10 | 274 | 0.0 | 3.2 | 0.00 | 0.00 | 0.00 | 56 | 1012.5 |
| 20260509145113 | 10 | 274 | 3.2 | 3.2 | 0.00 | 0.00 | 0.00 | 56 | 1012.7 |
| 20260509144610 | 10 | 274 | 1.6 | 1.6 | 0.00 | 0.00 | 0.00 | 57 | 1012.7 |
| 20260509144107 | 9 | 274 | 1.6 | 1.6 | 0.00 | 0.00 | 0.00 | 53 | 1012.7 |
| 20260509143604 | 10 | 274 | 1.6 | 3.2 | 0.00 | 0.00 | 0.00 | 54 | 1012.7 |
| 20260509143102 | 9 | 274 | 0.0 | 1.6 | 0.00 | 0.00 | 0.00 | 54 | 1012.5 |
| 20260509142556 | 9 | 274 | 0.0 | 3.2 | 0.00 | 0.00 | 0.00 | 56 | 1012.6 |
| 20260509142053 | 9 | 274 | 1.6 | 3.2 | 0.00 | 0.00 | 0.00 | 56 | 1012.4 |
| 20260509141549 | 9 | 274 | 0.0 | 0.0 | 0.00 | 0.00 | 0.00 | 56 | 1012.8 |
| 20260509141046 | 8 | 274 | 0.0 | 0.0 | 0.00 | 0.00 | 0.00 | 58 | 1012.5 |
| 20260509140543 | 9 | 274 | 1.6 | 1.6 | 0.00 | 0.00 | 0.00 | 56 | 1012.7 |
| 20260509140041 | 9 | 274 | 0.0 | 1.6 | 0.00 | 0.00 | 0.00 | 57 | 1012.8 |
| 20260509135538 | 8 | 274 | 0.0 | 1.6 | 0.00 | 0.00 | 0.00 | 59 | 1012.6 |
| 20260509135035 | 8 | 274 | 1.6 | 3.2 | 0.00 | 0.00 | 0.00 | 61 | 1012.6 |
| 20260509134526 | 7 | 274 | 0.0 | 0.0 | 0.00 | 0.00 | 0.00 | 63 | 1012.6 |
| 20260509134024 | 6 | 274 | 0.0 | 0.0 | 0.00 | 0.00 | 0.00 | 66 | 1012.9 |
| 20260509133520 | 6 | 274 | 1.6 | 3.2 | 0.00 | 0.00 | 0.00 | 67 | 1012.7 |
| 20260509133018 | 6 | 274 | 1.6 | 4.8 | 0.00 | 0.00 | 0.00 | 67 | 1012.8 |
| 20260509132517 | 6 | 274 | 3.2 | 3.2 | 0.00 | 0.00 | 0.00 | 67 | 1012.8 |
| 20260509132014 | 6 | 274 | 0.0 | 1.6 | 0.00 | 0.00 | 0.00 | 66 | 1013.0 |
| 20260509131510 | 6 | 274 | 0.0 | 0.0 | 0.00 | 0.00 | 0.00 | 68 | 1013.1 |
| 20260509131007 | 6 | 274 | 0.0 | 0.0 | 0.00 | 0.00 | 0.00 | 69 | 1013.0 |
| 20260509130502 | 7 | 274 | 0.0 | 0.0 | 0.00 | 0.00 | 0.00 | 68 | 1013.0 |
| 20260509130000 | 6 | 274 | 0.0 | 0.0 | 0.00 | 0.00 | 0.00 | 67 | 1013.3 |
| 20260509125456 | 7 | 274 | 0.0 | 0.0 | 0.00 | 0.00 | 0.00 | 67 | 1013.2 |
| 20260509124952 | 6 | 274 | 0.0 | 0.0 | 0.00 | 0.00 | 0.00 | 72 | 1013.1 |
| 20260509124449 | 5 | 274 | 0.0 | 0.0 | 0.00 | 0.00 | 0.00 | 74 | 1013.2 |
| 20260509123947 | 5 | 274 | 0.0 | 0.0 | 0.00 | 0.00 | 0.00 | 76 | 1013.1 |
| 20260509123444 | 5 | 274 | 0.0 | 0.0 | 0.00 | 0.00 | 0.00 | 75 | 1013.0 |
| 20260509122939 | 5 | 274 | 0.0 | 0.0 | 0.00 | 0.00 | 0.00 | 75 | 1013.2 |
| 20260509122437 | 5 | 274 | 0.0 | 0.0 | 0.00 | 0.00 | 0.00 | 77 | 1013.4 |
| 20260509121933 | 5 | 274 | 0.0 | 0.0 | 0.00 | 0.00 | 0.00 | 78 | 1013.6 |
| 20260509121430 | 5 | 274 | 0.0 | 0.0 | 0.00 | 0.00 | 0.00 | 78 | 1013.4 |
| 20260509120928 | 5 | 274 | 0.0 | 0.0 | 0.00 | 0.00 | 0.00 | 76 | 1013.3 |
| 20260509120426 | 4 | 274 | 0.0 | 0.0 | 0.00 | 0.00 | 0.00 | 80 | 1013.4 |
| 20260509115924 | 3 | 274 | 0.0 | 0.0 | 0.00 | 0.00 | 0.00 | 82 | 1013.4 |
| 20260509115421 | 3 | 274 | 0.0 | 0.0 | 0.00 | 0.00 | 0.00 | 84 | 1013.3 |
| 20260509114918 | 3 | 274 | 0.0 | 0.0 | 0.00 | 0.00 | 0.00 | 86 | 1013.3 |
| 20260509114417 | 3 | 274 | 0.0 | 0.0 | 0.00 | 0.00 | 0.00 | 88 | 1013.6 |
| 20260509113916 | 2 | 274 | 0.0 | 0.0 | 0.00 | 0.00 | 0.00 | 90 | 1013.3 |
| 20260509113413 | 2 | 274 | 0.0 | 0.0 | 0.00 | 0.00 | 0.00 | 92 | 1013.4 |
| 20260509112909 | 2 | 274 | 0.0 | 0.0 | 0.00 | 0.00 | 0.00 | 92 | 1013.3 |
| 20260509112407 | 2 | 274 | 0.0 | 0.0 | 0.00 | 0.00 | 0.00 | 92 | 1013.2 |
| 20260509111904 | 1 | 274 | 0.0 | 0.0 | 0.00 | 0.00 | 0.00 | 93 | 1013.3 |
| 20260509111400 | 1 | 274 | 0.0 | 0.0 | 0.00 | 0.00 | 0.00 | 93 | 1013.4 |
| 20260509110858 | 1 | 274 | 0.0 | 0.0 | 0.00 | 0.00 | 0.00 | 93 | 1013.4 |
| 20260509110354 | 1 | 274 | 0.0 | 0.0 | 0.00 | 0.00 | 0.00 | 94 | 1013.4 |
| 20260509105853 | 0 | 274 | 0.0 | 0.0 | 0.00 | 0.00 | 0.00 | 94 | 1013.1 |
| 20260509105350 | 0 | 274 | 0.0 | 0.0 | 0.00 | 0.00 | 0.00 | 94 | 1013.4 |
| 20260509104847 | 0 | 274 | 0.0 | 0.0 | 0.00 | 0.00 | 0.00 | 94 | 1013.2 |
| 20260509104343 | 0 | 274 | 0.0 | 0.0 | 0.00 | 0.00 | 0.00 | 94 | 1013.2 |
| 20260509103841 | 0 | 274 | 0.0 | 0.0 | 0.00 | 0.00 | 0.00 | 94 | 1013.0 |
| 20260509103338 | 0 | 274 | 0.0 | 0.0 | 0.00 | 0.00 | 0.00 | 94 | 1013.0 |
| 20260509102837 | 0 | 274 | 0.0 | 0.0 | 0.00 | 0.00 | 0.00 | 94 | 1012.9 |
| 20260509102334 | 0 | 274 | 0.0 | 0.0 | 0.00 | 0.00 | 0.00 | 94 | 1012.9 |
| 20260509101830 | 0 | 274 | 0.0 | 0.0 | 0.00 | 0.00 | 0.00 | 94 | 1012.8 |
| 20260509101326 | -1 | 274 | 0.0 | 0.0 | 0.00 | 0.00 | 0.00 | 94 | 1012.8 |
| 20260509100824 | -1 | 274 | 0.0 | 0.0 | 0.00 | 0.00 | 0.00 | 94 | 1012.7 |
| 20260509100321 | -1 | 274 | 0.0 | 0.0 | 0.00 | 0.00 | 0.00 | 94 | 1012.5 |
| 20260509095817 | -1 | 274 | 0.0 | 0.0 | 0.00 | 0.00 | 0.00 | 94 | 1012.4 |
| 20260509095315 | -1 | 274 | 0.0 | 0.0 | 0.00 | 0.00 | 0.00 | 94 | 1012.4 |
| 20260509094812 | -1 | 274 | 0.0 | 0.0 | 0.00 | 0.00 | 0.00 | 94 | 1012.4 |
| 20260509094309 | -1 | 274 | 0.0 | 0.0 | 0.00 | 0.00 | 0.00 | 93 | 1012.2 |
| 20260509093806 | -1 | 274 | 0.0 | 0.0 | 0.00 | 0.00 | 0.00 | 93 | 1012.3 |
| 20260509093303 | -1 | 274 | 0.0 | 0.0 | 0.00 | 0.00 | 0.00 | 93 | 1012.2 |
| 20260509092802 | -1 | 274 | 0.0 | 0.0 | 0.00 | 0.00 | 0.00 | 93 | 1012.0 |
| 20260509092259 | -1 | 274 | 0.0 | 0.0 | 0.00 | 0.00 | 0.00 | 93 | 1012.2 |
| 20260509091757 | -1 | 274 | 0.0 | 0.0 | 0.00 | 0.00 | 0.00 | 93 | 1012.2 |
| 20260509091254 | -1 | 274 | 0.0 | 0.0 | 0.00 | 0.00 | 0.00 | 93 | 1012.0 |
| 20260509090751 | -1 | 274 | 0.0 | 0.0 | 0.00 | 0.00 | 0.00 | 93 | 1012.0 |
| 20260509090248 | -1 | 274 | 0.0 | 0.0 | 0.00 | 0.00 | 0.00 | 93 | 1012.1 |
| 20260509085746 | -1 | 274 | 0.0 | 0.0 | 0.00 | 0.00 | 0.00 | 92 | 1012.2 |
| 20260509085243 | -1 | 274 | 0.0 | 0.0 | 0.00 | 0.00 | 0.00 | 92 | 1012.1 |
| 20260509084739 | -1 | 274 | 0.0 | 0.0 | 0.00 | 0.00 | 0.00 | 92 | 1011.8 |
| 20260509084236 | -1 | 274 | 0.0 | 0.0 | 0.00 | 0.00 | 0.00 | 92 | 1011.8 |
| 20260509083734 | -1 | 274 | 0.0 | 0.0 | 0.00 | 0.00 | 0.00 | 92 | 1011.9 |
| 20260509083230 | -1 | 274 | 0.0 | 0.0 | 0.00 | 0.00 | 0.00 | 92 | 1012.0 |
| 20260509082727 | -1 | 274 | 0.0 | 0.0 | 0.00 | 0.00 | 0.00 | 91 | 1012.3 |
| 20260509082224 | -1 | 274 | 0.0 | 0.0 | 0.00 | 0.00 | 0.00 | 91 | 1012.0 |
| 20260509081721 | 0 | 274 | 0.0 | 0.0 | 0.00 | 0.00 | 0.00 | 91 | 1012.2 |
| 20260509081218 | 0 | 274 | 0.0 | 0.0 | 0.00 | 0.00 | 0.00 | 91 | 1012.2 |
| 20260509080716 | 0 | 274 | 0.0 | 0.0 | 0.00 | 0.00 | 0.00 | 91 | 1012.1 |
| 20260509080214 | 0 | 274 | 0.0 | 0.0 | 0.00 | 0.00 | 0.00 | 91 | 1012.1 |
| 20260509075712 | 0 | 274 | 0.0 | 0.0 | 0.00 | 0.00 | 0.00 | 91 | 1012.1 |
| 20260509075209 | 0 | 274 | 0.0 | 0.0 | 0.00 | 0.00 | 0.00 | 91 | 1012.0 |
| 20260509074706 | 0 | 274 | 0.0 | 0.0 | 0.00 | 0.00 | 0.00 | 91 | 1012.1 |
| 20260509074203 | 0 | 274 | 0.0 | 0.0 | 0.00 | 0.00 | 0.00 | 91 | 1012.0 |
| 20260509073659 | 0 | 274 | 0.0 | 0.0 | 0.00 | 0.00 | 0.00 | 90 | 1012.0 |
| 20260509073155 | 0 | 274 | 0.0 | 0.0 | 0.00 | 0.00 | 0.00 | 90 | 1012.0 |
| 20260509072652 | 0 | 274 | 0.0 | 0.0 | 0.00 | 0.00 | 0.00 | 90 | 1012.0 |
| 20260509072149 | 0 | 274 | 0.0 | 0.0 | 0.00 | 0.00 | 0.00 | 90 | 1012.2 |
| 20260509071646 | 0 | 274 | 0.0 | 0.0 | 0.00 | 0.00 | 0.00 | 91 | 1012.0 |
| 20260509071143 | 0 | 274 | 0.0 | 0.0 | 0.00 | 0.00 | 0.00 | 90 | 1012.0 |
| 20260509070640 | 0 | 274 | 0.0 | 0.0 | 0.00 | 0.00 | 0.00 | 90 | 1011.6 |
| 20260509070136 | 0 | 274 | 0.0 | 0.0 | 0.00 | 0.00 | 0.00 | 90 | 1012.0 |
| 20260509065632 | 0 | 274 | 0.0 | 0.0 | 0.00 | 0.00 | 0.00 | 90 | 1011.8 |
| 20260509065128 | 0 | 274 | 0.0 | 0.0 | 0.00 | 0.00 | 0.00 | 90 | 1011.5 |
| 20260509064626 | 0 | 274 | 0.0 | 0.0 | 0.00 | 0.00 | 0.00 | 89 | 1011.8 |
| 20260509064124 | 0 | 274 | 0.0 | 0.0 | 0.00 | 0.00 | 0.00 | 89 | 1011.8 |
| 20260509063620 | 0 | 274 | 0.0 | 0.0 | 0.00 | 0.00 | 0.00 | 89 | 1011.8 |
| 20260509063117 | 0 | 274 | 0.0 | 0.0 | 0.00 | 0.00 | 0.00 | 88 | 1011.6 |
| 20260509062614 | 0 | 274 | 0.0 | 0.0 | 0.00 | 0.00 | 0.00 | 88 | 1011.5 |
| 20260509062111 | 0 | 274 | 0.0 | 0.0 | 0.00 | 0.00 | 0.00 | 88 | 1011.7 |
| 20260509061608 | 0 | 274 | 0.0 | 0.0 | 0.00 | 0.00 | 0.00 | 87 | 1011.7 |
| 20260509061105 | 1 | 274 | 0.0 | 0.0 | 0.00 | 0.00 | 0.00 | 87 | 1011.6 |
| 20260509060603 | 1 | 274 | 0.0 | 0.0 | 0.00 | 0.00 | 0.00 | 87 | 1011.7 |
| 20260509060058 | 1 | 274 | 0.0 | 0.0 | 0.00 | 0.00 | 0.00 | 86 | 1011.4 |
| 20260509055554 | 1 | 274 | 0.0 | 0.0 | 0.00 | 0.00 | 0.00 | 86 | 1011.4 |
| 20260509055050 | 1 | 274 | 0.0 | 0.0 | 0.00 | 0.00 | 0.00 | 85 | 1011.4 |
| 20260509054548 | 1 | 274 | 0.0 | 0.0 | 0.00 | 0.00 | 0.00 | 85 | 1011.4 |
| 20260509054045 | 1 | 274 | 0.0 | 0.0 | 0.00 | 0.00 | 0.00 | 85 | 1011.3 |
| 20260509053543 | 1 | 274 | 0.0 | 0.0 | 0.00 | 0.00 | 0.00 | 85 | 1011.5 |
| 20260509053040 | 1 | 274 | 0.0 | 0.0 | 0.00 | 0.00 | 0.00 | 85 | 1011.5 |
| 20260509052537 | 1 | 274 | 0.0 | 0.0 | 0.00 | 0.00 | 0.00 | 85 | 1011.4 |
| 20260509052030 | 1 | 274 | 0.0 | 0.0 | 0.00 | 0.00 | 0.00 | 85 | 1011.5 |
| 20260509051527 | 1 | 274 | 0.0 | 0.0 | 0.00 | 0.00 | 0.00 | 84 | 1011.4 |
| 20260509051024 | 1 | 274 | 0.0 | 0.0 | 0.00 | 0.00 | 0.00 | 84 | 1011.5 |
| 20260509050520 | 2 | 274 | 0.0 | 0.0 | 0.00 | 0.00 | 0.00 | 83 | 1011.4 |
| 20260509050011 | 2 | 274 | 0.0 | 0.0 | 0.00 | 0.00 | 0.00 | 83 | 1011.4 |
| 20260509045509 | 2 | 274 | 0.0 | 0.0 | 0.00 | 0.00 | 0.00 | 82 | 1011.2 |
| 20260509045006 | 2 | 274 | 0.0 | 0.0 | 0.00 | 0.00 | 0.00 | 82 | 1011.6 |
| 20260509044504 | 2 | 274 | 0.0 | 0.0 | 0.00 | 0.00 | 0.00 | 82 | 1011.7 |
| 20260509044000 | 2 | 274 | 0.0 | 0.0 | 0.00 | 0.00 | 0.00 | 82 | 1011.6 |
| 20260509043456 | 2 | 274 | 0.0 | 0.0 | 0.00 | 0.00 | 0.00 | 81 | 1011.5 |
| 20260509042952 | 2 | 274 | 0.0 | 0.0 | 0.00 | 0.00 | 0.00 | 81 | 1011.5 |
| 20260509042449 | 2 | 274 | 0.0 | 0.0 | 0.00 | 0.00 | 0.00 | 81 | 1011.3 |
| 20260509041945 | 2 | 274 | 0.0 | 0.0 | 0.00 | 0.00 | 0.00 | 81 | 1011.7 |
| 20260509041442 | 2 | 274 | 0.0 | 0.0 | 0.00 | 0.00 | 0.00 | 80 | 1011.4 |
| 20260509040940 | 2 | 274 | 0.0 | 0.0 | 0.00 | 0.00 | 0.00 | 80 | 1011.2 |
| 20260509040438 | 2 | 274 | 0.0 | 0.0 | 0.00 | 0.00 | 0.00 | 80 | 1011.3 |
| 20260509035934 | 2 | 274 | 0.0 | 0.0 | 0.00 | 0.00 | 0.00 | 80 | 1010.9 |
| 20260509035431 | 2 | 274 | 0.0 | 0.0 | 0.00 | 0.00 | 0.00 | 80 | 1011.2 |
| 20260509034928 | 2 | 274 | 0.0 | 0.0 | 0.00 | 0.00 | 0.00 | 80 | 1011.2 |
| 20260509034426 | 2 | 274 | 0.0 | 0.0 | 0.00 | 0.00 | 0.00 | 80 | 1011.1 |
| 20260509033922 | 2 | 274 | 0.0 | 0.0 | 0.00 | 0.00 | 0.00 | 80 | 1010.9 |
| 20260509033419 | 2 | 274 | 0.0 | 0.0 | 0.00 | 0.00 | 0.00 | 80 | 1011.1 |
| 20260509032916 | 2 | 274 | 0.0 | 0.0 | 0.00 | 0.00 | 0.00 | 79 | 1010.6 |
| 20260509032414 | 2 | 274 | 0.0 | 1.6 | 0.00 | 0.00 | 0.00 | 79 | 1010.7 |
| 20260509031911 | 2 | 274 | 0.0 | 0.0 | 0.00 | 0.00 | 0.00 | 78 | 1010.7 |
| 20260509031409 | 2 | 274 | 0.0 | 0.0 | 0.00 | 0.00 | 0.00 | 78 | 1010.6 |
| 20260509030906 | 2 | 274 | 0.0 | 0.0 | 0.00 | 0.00 | 0.00 | 78 | 1010.6 |
| 20260509030404 | 2 | 274 | 0.0 | 0.0 | 0.00 | 0.00 | 0.00 | 78 | 1010.4 |
| 20260509025901 | 2 | 274 | 0.0 | 0.0 | 0.00 | 0.00 | 0.00 | 77 | 1010.4 |
| 20260509025356 | 2 | 274 | 0.0 | 0.0 | 0.00 | 0.00 | 0.00 | 77 | 1010.3 |
| 20260509024851 | 2 | 274 | 0.0 | 0.0 | 0.00 | 0.00 | 0.00 | 78 | 1010.6 |
| 20260509024347 | 2 | 274 | 0.0 | 0.0 | 0.00 | 0.00 | 0.00 | 78 | 1010.5 |
| 20260509023845 | 2 | 274 | 0.0 | 0.0 | 0.00 | 0.00 | 0.00 | 77 | 1010.5 |
| 20260509023342 | 2 | 274 | 0.0 | 0.0 | 0.00 | 0.00 | 0.00 | 77 | 1010.2 |
| 20260509022838 | 2 | 274 | 0.0 | 0.0 | 0.00 | 0.00 | 0.00 | 77 | 1010.2 |
| 20260509022336 | 2 | 274 | 0.0 | 0.0 | 0.00 | 0.00 | 0.00 | 76 | 1010.4 |
| 20260509021832 | 2 | 274 | 0.0 | 0.0 | 0.00 | 0.00 | 0.00 | 76 | 1010.1 |
| 20260509021324 | 2 | 274 | 0.0 | 0.0 | 0.00 | 0.00 | 0.00 | 76 | 1010.0 |
| 20260509020822 | 2 | 274 | 0.0 | 0.0 | 0.00 | 0.00 | 0.00 | 75 | 1009.9 |
| 20260509020320 | 2 | 274 | 0.0 | 0.0 | 0.00 | 0.00 | 0.00 | 76 | 1009.9 |
| 20260509015817 | 2 | 274 | 0.0 | 0.0 | 0.00 | 0.00 | 0.00 | 75 | 1009.7 |
| 20260509015315 | 2 | 274 | 0.0 | 0.0 | 0.00 | 0.00 | 0.00 | 75 | 1009.6 |
| 20260509014811 | 2 | 274 | 0.0 | 0.0 | 0.00 | 0.00 | 0.00 | 73 | 1009.6 |
| 20260509014308 | 2 | 274 | 0.0 | 0.0 | 0.00 | 0.00 | 0.00 | 73 | 1009.5 |
| 20260509013804 | 2 | 274 | 0.0 | 0.0 | 0.00 | 0.00 | 0.00 | 73 | 1009.4 |
| 20260509013300 | 2 | 274 | 0.0 | 0.0 | 0.00 | 0.00 | 0.00 | 73 | 1009.6 |
| 20260509012756 | 2 | 274 | 0.0 | 0.0 | 0.00 | 0.00 | 0.00 | 71 | 1009.5 |
| 20260509012254 | 3 | 274 | 0.0 | 0.0 | 0.00 | 0.00 | 0.00 | 71 | 1009.2 |
| 20260509011751 | 3 | 274 | 0.0 | 0.0 | 0.00 | 0.00 | 0.00 | 70 | 1009.3 |
| 20260509011249 | 3 | 274 | 0.0 | 0.0 | 0.00 | 0.00 | 0.00 | 68 | 1009.3 |
| 20260509010746 | 3 | 274 | 0.0 | 0.0 | 0.00 | 0.00 | 0.00 | 67 | 1009.0 |
| 20260509010242 | 3 | 274 | 0.0 | 0.0 | 0.00 | 0.00 | 0.00 | 67 | 1009.0 |
| 20260509005740 | 3 | 274 | 0.0 | 0.0 | 0.00 | 0.00 | 0.00 | 66 | 1008.8 |
| 20260509005237 | 3 | 274 | 0.0 | 0.0 | 0.00 | 0.00 | 0.00 | 65 | 1008.9 |
| 20260509004732 | 4 | 274 | 0.0 | 0.0 | 0.00 | 0.00 | 0.00 | 65 | 1008.9 |
| 20260509004229 | 4 | 274 | 0.0 | 0.0 | 0.00 | 0.00 | 0.00 | 64 | 1008.6 |
| 20260509003727 | 4 | 274 | 0.0 | 0.0 | 0.00 | 0.00 | 0.00 | 65 | 1008.6 |
| 20260509003225 | 4 | 274 | 0.0 | 0.0 | 0.00 | 0.00 | 0.00 | 64 | 1008.5 |
| 20260509002722 | 5 | 274 | 0.0 | 0.0 | 0.00 | 0.00 | 0.00 | 63 | 1008.6 |
| 20260509002219 | 5 | 274 | 0.0 | 0.0 | 0.00 | 0.00 | 0.00 | 62 | 1008.3 |
| 20260509001711 | 5 | 274 | 0.0 | 0.0 | 0.00 | 0.00 | 0.00 | 62 | 1008.4 |
| 20260509001206 | 5 | 274 | 0.0 | 0.0 | 0.00 | 0.00 | 0.00 | 60 | 1008.3 |
| 20260509000704 | 5 | 274 | 0.0 | 0.0 | 0.00 | 0.00 | 0.00 | 59 | 1008.3 |
| 20260509000156 | 6 | 274 | 0.0 | 0.0 | 0.00 | 0.00 | 0.00 | 59 | 1008.2 |
| 20260508235653 | 6 | 274 | 0.0 | 0.0 | 0.00 | 0.00 | 0.00 | 57 | 1008.2 |
| 20260508235149 | 6 | 274 | 0.0 | 0.0 | 0.00 | 0.00 | 0.00 | 57 | 1007.9 |
| 20260508234646 | 6 | 274 | 0.0 | 0.0 | 0.00 | 0.00 | 0.00 | 55 | 1007.9 |
| 20260508234142 | 6 | 274 | 0.0 | 0.0 | 0.00 | 0.00 | 0.00 | 55 | 1008.0 |
| 20260508233637 | 7 | 274 | 0.0 | 0.0 | 0.00 | 0.00 | 0.00 | 54 | 1007.9 |
| 20260508233134 | 7 | 274 | 0.0 | 0.0 | 0.00 | 0.00 | 0.00 | 52 | 1007.9 |
| 20260508232631 | 8 | 274 | 0.0 | 0.0 | 0.00 | 0.00 | 0.00 | 53 | 1007.9 |
| 20260508232128 | 8 | 274 | 0.0 | 0.0 | 0.00 | 0.00 | 0.00 | 50 | 1007.8 |
| 20260508231625 | 9 | 274 | 0.0 | 0.0 | 0.00 | 0.00 | 0.00 | 46 | 1007.7 |
| 20260508231123 | 10 | 274 | 0.0 | 3.2 | 0.00 | 0.00 | 0.00 | 40 | 1007.6 |
| 20260508230618 | 10 | 274 | 0.0 | 0.0 | 0.00 | 0.00 | 0.00 | 43 | 1007.7 |
| 20260508230115 | 10 | 274 | 0.0 | 1.6 | 0.00 | 0.00 | 0.00 | 37 | 1007.6 |
| 20260508225613 | 10 | 274 | 0.0 | 3.2 | 0.00 | 0.00 | 0.00 | 36 | 1007.6 |
| 20260508225109 | 10 | 274 | 1.6 | 1.6 | 0.00 | 0.00 | 0.00 | 42 | 1007.6 |
| 20260508224607 | 10 | 274 | 0.0 | 1.6 | 0.00 | 0.00 | 0.00 | 42 | 1007.4 |
| 20260508224104 | 10 | 274 | 0.0 | 0.0 | 0.00 | 0.00 | 0.00 | 37 | 1007.5 |
| 20260508223602 | 10 | 274 | 0.0 | 1.6 | 0.00 | 0.00 | 0.00 | 36 | 1007.3 |
| 20260508223059 | 11 | 274 | 3.2 | 4.8 | 0.00 | 0.00 | 0.00 | 34 | 1007.4 |
| 20260508222556 | 11 | 274 | 0.0 | 0.0 | 0.00 | 0.00 | 0.00 | 35 | 1007.2 |
| 20260508222053 | 10 | 274 | 3.2 | 3.2 | 0.00 | 0.00 | 0.00 | 35 | 1007.3 |
| 20260508221549 | 10 | 274 | 0.0 | 0.0 | 0.00 | 0.00 | 0.00 | 35 | 1007.4 |
| 20260508221045 | 11 | 274 | 1.6 | 4.8 | 0.00 | 0.00 | 0.00 | 35 | 1007.4 |
| 20260508220542 | 11 | 274 | 0.0 | 0.0 | 0.00 | 0.00 | 0.00 | 39 | 1007.3 |
| 20260508220038 | 11 | 274 | 0.0 | 1.6 | 0.00 | 0.00 | 0.00 | 35 | 1007.2 |
| 20260508215535 | 11 | 274 | 0.0 | 3.2 | 0.00 | 0.00 | 0.00 | 34 | 1007.0 |
| 20260508215032 | 11 | 274 | 0.0 | 0.0 | 0.00 | 0.00 | 0.00 | 34 | 1007.1 |
| 20260508214530 | 11 | 274 | 0.0 | 0.0 | 0.00 | 0.00 | 0.00 | 35 | 1007.2 |
| 20260508214026 | 11 | 274 | 0.0 | 0.0 | 0.00 | 0.00 | 0.00 | 34 | 1007.1 |
| 20260508213523 | 11 | 274 | 1.6 | 4.8 | 0.00 | 0.00 | 0.00 | 33 | 1006.8 |
| 20260508213019 | 11 | 274 | 4.8 | 9.7 | 0.00 | 0.00 | 0.00 | 33 | 1006.9 |
| 20260508212516 | 11 | 274 | 1.6 | 4.8 | 0.00 | 0.00 | 0.00 | 35 | 1007.0 |
| 20260508212012 | 12 | 274 | 1.6 | 9.7 | 0.00 | 0.00 | 0.00 | 35 | 1007.1 |
| 20260508211508 | 11 | 274 | 0.0 | 3.2 | 0.00 | 0.00 | 0.00 | 36 | 1007.0 |
| 20260508211004 | 11 | 274 | 0.0 | 0.0 | 0.00 | 0.00 | 0.00 | 35 | 1006.9 |
| 20260508210501 | 11 | 274 | 0.0 | 3.2 | 0.00 | 0.00 | 0.00 | 36 | 1006.8 |
| 20260508205957 | 11 | 274 | 1.6 | 6.4 | 0.00 | 0.00 | 0.00 | 35 | 1006.8 |
| 20260508205454 | 11 | 274 | 3.2 | 4.8 | 0.00 | 0.00 | 0.00 | 37 | 1007.0 |
| 20260508204951 | 10 | 274 | 3.2 | 3.2 | 0.00 | 0.00 | 0.00 | 37 | 1006.8 |
| 20260508204448 | 10 | 274 | 1.6 | 3.2 | 0.00 | 0.00 | 0.00 | 39 | 1007.0 |
| 20260508203943 | 10 | 274 | 0.0 | 4.8 | 0.00 | 0.00 | 0.00 | 39 | 1006.9 |
| 20260508203440 | 11 | 274 | 3.2 | 9.7 | 0.00 | 0.00 | 0.00 | 39 | 1006.7 |
| 20260508202936 | 11 | 274 | 0.0 | 6.4 | 0.00 | 0.00 | 0.00 | 39 | 1006.8 |
| 20260508202433 | 11 | 274 | 1.6 | 9.7 | 0.00 | 0.00 | 0.00 | 39 | 1006.9 |
| 20260508201930 | 11 | 274 | 1.6 | 6.4 | 0.00 | 0.00 | 0.00 | 38 | 1006.9 |
| 20260508201427 | 10 | 274 | 0.0 | 1.6 | 0.00 | 0.00 | 0.00 | 41 | 1006.6 |
| 20260508200924 | 10 | 274 | 1.6 | 1.6 | 0.00 | 0.00 | 0.00 | 41 | 1006.5 |
| 20260508200421 | 10 | 274 | 0.0 | 3.2 | 0.00 | 0.00 | 0.00 | 41 | 1006.4 |
| 20260508195916 | 10 | 274 | 0.0 | 6.4 | 0.00 | 0.00 | 0.00 | 42 | 1006.6 |
| 20260508195413 | 10 | 274 | 0.0 | 3.2 | 0.00 | 0.00 | 0.00 | 40 | 1006.5 |
| 20260508194908 | 10 | 274 | 4.8 | 4.8 | 0.00 | 0.00 | 0.00 | 41 | 1006.4 |
| 20260508194406 | 11 | 274 | 1.6 | 6.4 | 0.00 | 0.00 | 0.00 | 40 | 1006.4 |
| 20260508193857 | 11 | 274 | 0.0 | 4.8 | 0.00 | 0.00 | 0.00 | 38 | 1006.3 |
| 20260508193354 | 11 | 274 | 1.6 | 3.2 | 0.00 | 0.00 | 0.00 | 38 | 1006.4 |
| 20260508192850 | 11 | 274 | 1.6 | 11.3 | 0.00 | 0.00 | 0.00 | 39 | 1006.3 |
| 20260508192347 | 11 | 274 | 0.0 | 0.0 | 0.00 | 0.00 | 0.00 | 38 | 1006.1 |
| 20260508191844 | 11 | 274 | 0.0 | 1.6 | 0.00 | 0.00 | 0.00 | 38 | 1006.1 |
| 20260508191342 | 11 | 274 | 0.0 | 3.2 | 0.00 | 0.00 | 0.00 | 39 | 1006.2 |
| 20260508190839 | 11 | 274 | 0.0 | 4.8 | 0.00 | 0.00 | 0.00 | 40 | 1006.1 |
| 20260508190335 | 11 | 274 | 3.2 | 9.7 | 0.00 | 0.00 | 0.00 | 39 | 1006.1 |
| 20260508185831 | 11 | 274 | 3.2 | 4.8 | 0.00 | 0.00 | 0.00 | 38 | 1006.1 |
| 20260508185329 | 11 | 274 | 0.0 | 6.4 | 0.00 | 0.00 | 0.00 | 38 | 1005.9 |
| 20260508184826 | 11 | 274 | 0.0 | 3.2 | 0.00 | 0.00 | 0.00 | 37 | 1006.0 |
| 20260508184323 | 11 | 274 | 1.6 | 4.8 | 0.00 | 0.00 | 0.00 | 36 | 1005.8 |
| 20260508183820 | 11 | 274 | 3.2 | 4.8 | 0.00 | 0.00 | 0.00 | 35 | 1005.9 |
| 20260508183316 | 11 | 274 | 1.6 | 6.4 | 0.00 | 0.00 | 0.00 | 35 | 1005.8 |
| 20260508182812 | 11 | 274 | 0.0 | 3.2 | 0.00 | 0.00 | 0.00 | 36 | 1006.0 |
| 20260508182309 | 11 | 274 | 1.6 | 11.3 | 0.00 | 0.00 | 0.00 | 36 | 1005.8 |
| 20260508181759 | 11 | 274 | 3.2 | 6.4 | 0.00 | 0.00 | 0.00 | 35 | 1005.8 |
| 20260508181256 | 11 | 274 | 1.6 | 6.4 | 0.00 | 0.00 | 0.00 | 36 | 1005.9 |